Regional Weather Roundup
Issued by NWS

Home | Current Version | Previous Version | Text Only | Print | Product List | Glossary On
Versions: 1 2 3 4 5 6 7 8 9 10 11 12 13 14 15 16 17 18 19 20 21 22 23 24 25 26 27 28 29 30 31 32 33 34 35 36 37 38 39 40 41 42 43 44 45 46 47 48 49 50
000
ASUS46 KSTO 030804
RWRCA

NORTHERN AND CENTRAL CA REGIONAL WEATHER ROUNDUP
NATIONAL WEATHER SERVICE SACRAMENTO CA
1200 AM PST TUE MAR 03 2015

NOTE: FAIR INDICATES FEW OR NO CLOUDS BELOW 12,000 FEET WITH NO
SIGNIFICANT WEATHER AND/OR OBSTRUCTIONS TO VISIBILITY.

CAZ001-003-030900-
NORTHWEST AREA

CITY           SKY/WX    TMP DP  RH WIND       PRES   REMARKS
CRESCENT CITY  CLEAR     43  38  82 NE3       30.05R
UKIAH          CLEAR     43  37  79 CALM      30.00R
$$

CAZ006-505>513-030900-
BAY AREA

CITY           SKY/WX    TMP DP  RH WIND       PRES   REMARKS
SANTA ROSA     CLEAR     42  40  92 CALM      29.99R
SAN RAFAEL     N/A       52  MM  MM MISG
NAPA           CLEAR     43  40  89 N6        29.99R
CONCORD        CLEAR     48  42  80 SE3       29.99R
OAKLAND CITY   N/A       56  MM  MM MISG
OAKLAND        CLEAR     50  43  77 SE5       29.98R
SAN FRAN CITY  N/A       53  MM  68 MISG
SAN FRAN ARPT  CLEAR     52  47  83 W7        29.98R
LIVERMORE      CLEAR     45  39  79 CALM      29.98R
HAYWARD        CLEAR     50  43  77 E5        29.98R
REDWOOD CITY   N/A       MM  MM  MM MISG
MOFFETT ARPT   CLEAR     48  42  80 CALM      30.00R
SAN JOSE ARPT  CLEAR     45  40  82 SE5       29.99R
$$
CAZ034-037-514>518-030900-
CENTRAL COAST

CITY           SKY/WX    TMP DP  RH WIND       PRES   REMARKS
WATSONVILLE    CLEAR     46  41  82 NW5       29.99R
SALINAS        CLEAR     46  41  82 CALM      29.98R
MONTEREY       CLEAR     45  41  86 E5        29.98R
SAN LUIS OBISP CLEAR     43  42  97 CALM      29.97R
SANTA MARIA    CLEAR     44  40  85 S7        29.97S
$$
CAZ015-016-030900-
NORTHERN SACRAMENTO VALLEY

CITY           SKY/WX    TMP DP  RH WIND       PRES   REMARKS
REDDING        CLEAR     41  37  86 CALM      29.99R
RED BLUFF      CLEAR     40  36  86 NW6       30.00R
OROVILLE       CLEAR     44  39  82 CALM      30.01R
$$
CAZ016>018-030900-
SOUTHERN SACRAMENTO VALLEY

CITY           SKY/WX    TMP DP  RH WIND       PRES   REMARKS
AUBURN         CLEAR     41  37  87 E8        29.98S
BEALE AFB      CLEAR     44  39  82 NE6       29.99R
LINCOLN        FAIR      39  37  93 E7        29.98R WCI  34
MARYSVILLE     CLEAR     44  40  85 E5        30.01R
SAC INTL ARPT  PTCLDY    44  41  89 CALM      29.99R
MATHER AIRPORT NOT AVBL
DOWNTOWN SAC   N/A       49  MM  MM MISG
SAC EXEC ARPT  CLEAR     47  41  80 CALM      29.99R
VACAVILLE      CLEAR     44  40  85 CALM      29.99R
TRAVIS AFB     CLEAR     43  42  96 E3        29.97R
$$
CAZ019>021-030900-
SAN JOAQUIN VALLEY

CITY           SKY/WX    TMP DP  RH WIND       PRES   REMARKS
STOCKTON       CLEAR     43  39  86 CALM      29.98R
MODESTO        CLEAR     46  42  86 SE3       29.98R
MERCED         CLEAR     44  42  93 N3        29.98R
LEMOORE        PTCLDY    38  34  85 W8        29.98R WCI  32
FRESNO         CLEAR     46  41  82 CALM      29.97S
HANFORD        CLEAR     44  41  89 CALM      29.98R
PORTERVILLE    CLEAR     39  36  87 S6        29.98R WCI  35
BAKERSFIELD    CLEAR     46  41  82 N5        29.96R
$$
CAZ011-012-071-030900-
NORTHERN MOUNTAINS

CITY           SKY/WX    TMP DP  RH WIND       PRES   REMARKS
YREKA          CLEAR     33  28  81 N5          N/A  WCI  29
MOUNT SHASTA   CLOUDY    38  29  70 CALM      29.99R
ALTURAS        MOCLDY    35  20  54 N10       29.95R WCI  27
$$
CAZ011-012-071-030900-
SIERRA NEVADA MTNS

CITY           SKY/WX    TMP DP  RH WIND       PRES   REMARKS
BLUE CANYON    CLEAR     34  26  72 CALM      29.96S
TRUCKEE        MOCLDY    27  23  86 CALM      29.95R
TAHOE VLY ARPT CLOUDY    28  20  71 S6        29.94R WCI  22
MAMMOTH LAKES  MOCLDY    25  21  86 W5        29.92S WCI  19
$$



USA.gov is the U.S. government's official web portal to all federal, state and local government web resources and services.